Location: Newark
(47.5833°N, 8.1500°E)
Time: 07:53:53
(UTC+00:00)

Vanguard 1 - Pass Details

Date: 28 October 2020
Orbit: 650 x 3833 km, 34.2° (Epoch: 29 November)

Event Time Altitude Azimuth Distance (km) Brightness Sun altitude
Rises 14:00:02 0° 251° (WSW) 7,805 15.8 18.4°
Reaches altitude 10° 14:05:23 10° 248° (WSW) 6,900 15.8 17.7°
Maximum altitude 14:27:38 55° 180° (S) 3,913 13.7 15.0°
Drops below altitude 10° 14:43:42 10° 109° (ESE) 5,172 13.5 12.9°
Sets 14:47:02 0° 104° (ESE) 5,828 13.6 12.4°
